Weather history for 0422

Weather History For Prescott AZ

This page updates 5 minutes after midnight. GMT -7

Station: KPRC0 Rows: 26

Return to today's weather
Year Date Temp (°F) Tmin (°F) Tmax (°F) RH% Prcp Snow Wind Gust Pres Sun Cloud
2000 2000-04-22 54.1 42.1 64.9 51 19.6 29.82 0
2001 2001-04-22 44.4 33.1 57.0 58 14.0 30.05 4
2002 2002-04-22 57.9 35.6 77.0 19 12.1 29.96 0
2003 2003-04-22 45.0 35.6 51.8 48 23.2 29.67 4
2004 2004-04-22 55.4 46.4 60.8 26 20.6 29.66 1
2005 2005-04-22 55.0 39.0 69.1 28 0.0 9.2 30.01 1
2006 2006-04-22 61.3 52.0 72.0 16 0.0 22.0 29.72 0
2007 2007-04-22 49.5 35.1 60.1 46 0.0 13.6 29.88 4
2008 2008-04-22 55.0 34.0 73.0 19 0.0 10.0 29.88 0
2009 2009-04-22 65.7 46.9 81.0 20 0.0 11.4 29.85 0
2010 2010-04-22 36.7 32.0 43.0 70 10.6 29.69 6
2011 2011-04-22 59.2 43.0 72.0 32 0.0 12.9 29.75 0
2012 2012-04-22 69.4 50.0 86.0 23 0.0 9.9 29.90 0
2013 2013-04-22 64.8 48.0 78.1 18 0.0 13.4 29.83 0
2014 2014-04-22 64.2 51.1 75.0 26 0.0 20.0 29.77 1
2015 2015-04-22 57.2 46.0 66.9 22 0.0 15.6 29.76 0
2016 2016-04-22 64.4 46.9 77.0 21 0.0 18.1 29.84 0
2017 2017-04-22 62.6 44.1 80.1 23 0.0 9.6 29.88 0
2018 2018-04-22 62.4 42.1 77.0 24 0.0 10.1 29.89 0
2019 2019-04-22 54.5 39.9 66.9 37 0.0 11.2 29.85 1
2020 2020-04-22 56.8 39.0 71.1 46 0.0 14.8 30.00 0
2021 2021-04-22 54.3 43.0 64.0 34 0.0 16.5 29.71
2022 2022-04-22 52.2 39.0 60.1 35 24.6 29.75
2023 2023-04-22 59.7 45.0 72.0 32 0.0 12.1 29.84 0
2024 2024-04-22 66.0 50.0 80.1 26 0.0 12.2 29.81 0
2025 2025-04-22 59.9 42.1 73.9 24 0.0 11.1 29.83 0
Average Low 42.3
Average High 69.6

Daily High / Low by Year (04/22)

Barometric Pressure by Year (04/22)

Weather data provided by Meteostat